| time (UTC) | temp C | wind direction | speed KPH | gust KPH | rain 1hr cm | rain 24hr cm | rain mn cm | humidity % | barometer mb |
| 20260504050017 | 15 | 293 | 1.6 | 4.8 | 0.00 | 0.00 | 0.00 | 67 | 1021.6 |
| 20260504045038 | 15 | 293 | 1.6 | 4.8 | 0.00 | 0.00 | 0.00 | 68 | 1021.5 |
| 20260504044017 | 15 | 293 | 3.2 | 6.4 | 0.00 | 0.00 | 0.00 | 70 | 1021.5 |
| 20260504043017 | 15 | 293 | 3.2 | 6.4 | 0.00 | 0.00 | 0.00 | 72 | 1021.4 |
| 20260504042017 | 14 | 293 | 3.2 | 4.8 | 0.00 | 0.00 | 0.00 | 72 | 1021.3 |
| 20260504041017 | 15 | 0.0 | 0.0 | 0.00 | 0.00 | 0.00 | 73 | 1021.3 | |
| 20260504040037 | 15 | 293 | 3.2 | 6.4 | 0.00 | 0.00 | 0.00 | 74 | 1021.3 |
| 20260504035043 | 15 | 293 | 3.2 | 6.4 | 0.00 | 0.00 | 0.00 | 74 | 1021.3 |
| 20260504034017 | 15 | 0.0 | 0.0 | 0.00 | 0.00 | 0.00 | 75 | 1021.4 | |
| 20260504033017 | 14 | 0.0 | 0.0 | 0.00 | 0.00 | 0.00 | 74 | 1021.3 | |
| 20260504032017 | 14 | 293 | 3.2 | 6.4 | 0.00 | 0.00 | 0.00 | 71 | 1021.3 |
| 20260504031017 | 13 | 293 | 3.2 | 4.8 | 0.00 | 0.00 | 0.00 | 69 | 1021.3 |
| 20260504030017 | 13 | 315 | 3.2 | 6.4 | 0.00 | 0.00 | 0.00 | 69 | 1021.3 |
| 20260504025017 | 13 | 293 | 3.2 | 8.0 | 0.00 | 0.00 | 0.00 | 69 | 1021.3 |
| 20260504024018 | 13 | 293 | 4.8 | 6.4 | 0.00 | 0.00 | 0.00 | 70 | 1021.4 |
| 20260504023017 | 14 | 293 | 1.6 | 6.4 | 0.00 | 0.00 | 0.00 | 70 | 1021.4 |
| 20260504022017 | 14 | 270 | 1.6 | 4.8 | 0.00 | 0.00 | 0.00 | 69 | 1021.5 |
| 20260504021017 | 13 | 315 | 1.6 | 4.8 | 0.00 | 0.00 | 0.00 | 71 | 1021.6 |
| 20260504020017 | 13 | 0.0 | 4.8 | 0.00 | 0.00 | 0.00 | 71 | 1021.5 | |
| 20260504015017 | 13 | 293 | 1.6 | 3.2 | 0.00 | 0.00 | 0.00 | 71 | 1021.5 |
| 20260504014017 | 14 | 293 | 3.2 | 6.4 | 0.00 | 0.00 | 0.00 | 70 | 1021.5 |
| 20260504013017 | 14 | 293 | 1.6 | 3.2 | 0.00 | 0.00 | 0.00 | 70 | 1021.6 |
| 20260504012037 | 14 | 270 | 3.2 | 4.8 | 0.00 | 0.00 | 0.00 | 70 | 1021.5 |
| 20260504011017 | 14 | 270 | 1.6 | 4.8 | 0.00 | 0.00 | 0.00 | 71 | 1021.4 |
| 20260504010017 | 14 | 293 | 1.6 | 4.8 | 0.00 | 0.00 | 0.00 | 71 | 1021.6 |
| 20260504005016 | 15 | 293 | 1.6 | 4.8 | 0.00 | 0.00 | 0.00 | 71 | 1021.6 |
| 20260504004117 | 15 | 0.0 | 0.0 | 0.00 | 0.00 | 0.00 | 71 | 1021.6 | |
| 20260504003017 | 15 | 0.0 | 0.0 | 0.00 | 0.00 | 0.00 | 73 | 1021.5 | |
| 20260504002017 | 15 | 0.0 | 0.0 | 0.00 | 0.00 | 0.00 | 74 | 1021.6 | |
| 20260504001016 | 15 | 0.0 | 0.0 | 0.00 | 0.00 | 0.00 | 76 | 1021.5 | |
| 20260504000037 | 15 | 315 | 1.6 | 6.4 | 0.00 | 0.00 | 0.00 | 78 | 1021.6 |
| 20260503235017 | 15 | 0.0 | 6.4 | 0.00 | 0.00 | 0.00 | 79 | 1021.7 | |
| 20260503234016 | 15 | 0.0 | 0.0 | 0.00 | 0.00 | 0.00 | 79 | 1021.8 | |
| 20260503233017 | 15 | 0.0 | 0.0 | 0.00 | 0.00 | 0.00 | 79 | 1022.0 | |
| 20260503232017 | 15 | 0.0 | 1.6 | 0.00 | 0.00 | 0.00 | 80 | 1022.0 | |
| 20260503231017 | 15 | 0.0 | 0.0 | 0.00 | 0.00 | 0.00 | 81 | 1022.0 | |
| 20260503230017 | 15 | 0.0 | 3.2 | 0.00 | 0.00 | 0.00 | 81 | 1022.2 | |
| 20260503225017 | 15 | 0.0 | 0.0 | 0.00 | 0.00 | 0.00 | 82 | 1022.3 | |
| 20260503224017 | 15 | 248 | 3.2 | 11.3 | 0.00 | 0.00 | 0.00 | 82 | 1022.3 |
| 20260503223016 | 15 | 293 | 3.2 | 9.7 | 0.00 | 0.00 | 0.00 | 83 | 1022.3 |
| 20260503222057 | 15 | 0.0 | 0.0 | 0.00 | 0.00 | 0.00 | 82 | 1022.3 | |
| 20260503221017 | 15 | 0.0 | 0.0 | 0.00 | 0.00 | 0.00 | 82 | 1022.3 | |
| 20260503220129 | 15 | 293 | 3.2 | 4.8 | 0.00 | 0.00 | 0.00 | 82 | 1022.3 |
| 20260503215016 | 15 | 0.0 | 0.0 | 0.00 | 0.00 | 0.00 | 82 | 1022.4 | |
| 20260503214016 | 16 | 0.0 | 1.6 | 0.00 | 0.00 | 0.00 | 81 | 1022.5 | |
| 20260503213017 | 16 | 270 | 1.6 | 6.4 | 0.00 | 0.00 | 0.00 | 81 | 1022.4 |
| 20260503212016 | 16 | 270 | 4.8 | 9.7 | 0.00 | 0.00 | 0.00 | 81 | 1022.5 |
| 20260503211016 | 16 | 270 | 1.6 | 6.4 | 0.00 | 0.00 | 0.00 | 81 | 1022.6 |
| 20260503210017 | 16 | 270 | 4.8 | 12.9 | 0.00 | 0.00 | 0.00 | 80 | 1022.6 |
| 20260503205016 | 16 | 270 | 4.8 | 11.3 | 0.00 | 0.00 | 0.00 | 81 | 1022.6 |
| 20260503204016 | 16 | 270 | 3.2 | 9.7 | 0.00 | 0.00 | 0.00 | 81 | 1022.5 |
| 20260503203016 | 16 | 293 | 3.2 | 6.4 | 0.00 | 0.00 | 0.00 | 81 | 1022.4 |
| 20260503202016 | 16 | 315 | 3.2 | 6.4 | 0.00 | 0.00 | 0.00 | 80 | 1022.4 |
| 20260503201016 | 16 | 293 | 3.2 | 6.4 | 0.00 | 0.00 | 0.00 | 79 | 1022.5 |
| 20260503200016 | 16 | 270 | 1.6 | 4.8 | 0.00 | 0.00 | 0.00 | 79 | 1022.4 |
| 20260503195016 | 16 | 270 | 4.8 | 9.7 | 0.00 | 0.00 | 0.00 | 79 | 1022.4 |
| 20260503194036 | 16 | 293 | 3.2 | 6.4 | 0.00 | 0.00 | 0.00 | 78 | 1022.5 |
| 20260503193037 | 16 | 270 | 4.8 | 11.3 | 0.00 | 0.00 | 0.00 | 78 | 1022.5 |
| 20260503192016 | 16 | 270 | 6.4 | 14.5 | 0.00 | 0.00 | 0.00 | 77 | 1022.5 |
| 20260503191016 | 16 | 270 | 3.2 | 11.3 | 0.00 | 0.00 | 0.00 | 76 | 1022.3 |
| 20260503190016 | 16 | 270 | 3.2 | 6.4 | 0.00 | 0.00 | 0.00 | 76 | 1022.3 |
| 20260503185016 | 16 | 270 | 4.8 | 9.7 | 0.00 | 0.00 | 0.00 | 76 | 1022.3 |
| 20260503184056 | 16 | 270 | 4.8 | 11.3 | 0.00 | 0.00 | 0.00 | 76 | 1022.1 |
| 20260503183016 | 16 | 270 | 4.8 | 12.9 | 0.00 | 0.00 | 0.00 | 76 | 1021.8 |
| 20260503182016 | 16 | 270 | 4.8 | 9.7 | 0.00 | 0.00 | 0.00 | 74 | 1021.5 |
| 20260503181036 | 16 | 270 | 4.8 | 9.7 | 0.00 | 0.00 | 0.00 | 73 | 1021.5 |
| 20260503180016 | 17 | 293 | 3.2 | 9.7 | 0.00 | 0.00 | 0.00 | 72 | 1021.3 |
| 20260503175016 | 17 | 315 | 4.8 | 12.9 | 0.00 | 0.00 | 0.00 | 72 | 1021.3 |
| 20260503174036 | 17 | 293 | 3.2 | 6.4 | 0.00 | 0.00 | 0.00 | 72 | 1021.2 |
| 20260503173056 | 17 | 270 | 4.8 | 11.3 | 0.00 | 0.00 | 0.00 | 71 | 1021.3 |
| 20260503172016 | 17 | 293 | 8.0 | 16.1 | 0.00 | 0.00 | 0.00 | 70 | 1021.0 |
| 20260503171036 | 17 | 270 | 6.4 | 12.9 | 0.00 | 0.00 | 0.00 | 72 | 1021.0 |
| 20260503131015 | 18 | 270 | 12.9 | 29.0 | 0.00 | 0.00 | 0.00 | 67 | 1021.5 |
| 20260503081017 | 18 | 293 | 14.5 | 24.1 | 0.00 | 0.00 | 0.00 | 63 | 1022.4 |
| 20260503072017 | 17 | 315 | 16.1 | 27.4 | 0.00 | 0.00 | 0.00 | 62 | 1022.3 |
| 20260503071022 | 17 | 315 | 16.1 | 33.8 | 0.00 | 0.00 | 0.00 | 62 | 1022.2 |
| 20260503055017 | 16 | 293 | 14.5 | 25.7 | 0.00 | 0.00 | 0.00 | 64 | 1022.0 |
| 20260503054017 | 16 | 315 | 16.1 | 24.1 | 0.00 | 0.00 | 0.00 | 65 | 1022.0 |
| 20260503053017 | 16 | 315 | 12.9 | 25.7 | 0.00 | 0.00 | 0.00 | 65 | 1022.0 |
| 20260503052017 | 16 | 293 | 8.0 | 19.3 | 0.00 | 0.00 | 0.00 | 66 | 1021.9 |